Tracking 30703 objects as of 14-Jun-2025
HD Live streaming from Space Station
objects crossing your sky now

COSMOS 1275 DEB

Track COSMOS 1275 DEB now!
10-day predictions


NORAD ID: 13817
Int'l Code: 1981-053HQ
Perigee: 859.5 km
Apogee: 896.7 km
Inclination: 82.9 °
Period: 102.4 minutes
Semi major axis: 7249 km
RCS: 0.0127 m2 (small)
Launch date: June 4, 1981
Source: Commonwealth of Independent States (former USSR) (CIS)
Launch site: PLESETSK MISSILE AND SPACE COMPLEX (PKMTR)

Note: This is SATELLITE DEBRIS
Your satellite tracking list
Your tracking list is empty




NASA's NSSDC Master Catalog

Two Line Element Set (TLE):
1 13817U 81053HM  25164.56146785  .00001535  00000-0  91403-3 0  9991
2 13817  82.9433 205.5283 0025655  20.5708 339.6492 14.06629641204518
Source of the keplerian elements: AFSPC